NOAA 17 DEB, 48715

Orbit data source: Space-Track

NOAA 17 DEB, 48715 is space debris in SSO originally from a launch on Mon, 24 Jun 2002 UTC launched from the Air Force Western Test Range (AFWTR). Debris objects in space refer to the collection of defunct objects orbiting the Earth. Examples of debris include non-operational satellites, rocket bodies, and fragments generated from explosions, collisions, or faulty payload assembly.

Loading next visibility...
Identifier
48715, 2002-032AY
Orbit
SSO
Country
Flag of USUS
Related business
Manufacturer
Unknown
Mission
Spacecraft
Bus & Motor
Unknown
Mass
Unknown
Launch date (UTC)
2002-06-24 (24 years ago)
Launch vehicle
Unknown
Launch site
Air Force Western Test Range (AFWTR)
Object type
Payload
Rocket body
Debris
Shape & HBR
Unknown shape, 0.1 m
Radar Cross Section
Small (<0.1 m²)

Expand to show TLE details & history
Last TLE update: 3 days ago

TLE from 3 days ago
0 NOAA 17 DEB
1 48715U 02032AY  26170.51659848  .00043824  00000-0  34938-2 0  9994
2 48715  98.7208 188.4944 0014853 125.3387 234.9224 15.00084812273859
Epoch: 2026-06-19T12:23Z
TLE epoch observation values (Epoch: 2026-06-19T12:23:54.108Z)
Latitude
-0.00004°
Longitude
94.77451°
Altitude
575.597 km
Speed
7.57 km/s
True Right ascension
12h 33m 58s
True Declination
0° 00' 00"
Sunlit
Object was in daylight at epoch
Visualization orbit readout
Latitude
Unknown
Longitude
Unknown
Altitude
Unknown
Speed
Unknown
Apparent Right ascension
Unknown
Apparent Declination
Unknown
Sunlit
N/A
Visualization observer readout
Local Sidereal Time
21:37:53
Azimuth
Unknown
Elevation
Unknown
Doppler factor
Unknown
Orbital elements
Apogee altitude
573.998 km
Perigee altitude
553.377 km
Semi-major axis
6,941.825 km
Eccentricity
0.00149
Inclination
98.7208°
RAAN
188.4944°
Arg. of periapsis
125.3387°
True anomaly
234.78326°
Mean anomaly
234.9224°
Eccentric anomaly
234.85281°
Mean motion
3.7526 °/min
Orbital period
95.93 mins
BSTAR
0.0034938
Loading maneuver chart data...
Computing Atmospheric mass density...

Documentation

Showing up to 5 results
|